Regional Weather Roundup
Issued by NWS Charleston, SC

Current Version | Previous Version | Graphics & Text | Print | Product List | Glossary On
Versions: 1 2 3 4 5 6 7 8 9 10 11 12 13 14 15 16 17 18 19 20 21 22 23 24 25 26 27 28 29 30 31 32 33 34 35 36 37 38 39 40 41 42 43 44 45 46 47 48 49 50
000 ASUS42 KCHS 291426 RWRCHS REGIONAL WEATHER ROUNDUP NATIONAL WEATHER SERVICE CHARLESTON SC 1000 AM EDT WED JUL 29 2015 NOTE: "FAIR" INDICATES FEW OR NO CLOUDS BELOW 12,000 FEET WITH NO SIGNIFICANT WEATHER AND/OR OBSTRUCTIONS TO VISIBILITY. NOT ALL STATIONS ARE QUALITY CONTROLLED BY THE NATIONAL WEATHER SERVICE. USE DATA WITH CAUTION...ESPECIALLY DEWPOINT OBSERVATIONS. SCZ027-030-031-034>040-042>050-291500- ...SOUTHEAST SOUTH CAROLINA... CITY SKY/WX TMP DP RH WIND PRES REMARKS N CHARLESTON MOSUNNY 84 74 71 NE6 29.99R HX 91 WATERFRONT PRK N/A 84 76 77 E5 29.97R HX 93 MOUNT PLEASANT LGT RAIN 84 75 74 NE5 29.99S HX 92 JOHNS ISLAND FAIR 86 77 74 NE6 29.99S HX 97 PINOPOLIS NOT AVBL MONCKS CORNER FAIR 86 73 66 NE6 30.00S HX 93 SUMMERVILLE FAIR 84 73 70 N5 30.01S HX 91 BEAUFORT MCAS PTSUNNY 84 75 74 NE6 30.00R HX 92 BEAUFORT ARPT FAIR 82 77 83 NE5 29.99S HX 91 HILTON HEAD IS MOSUNNY 82 75 78 N6 30.00R WALTERBORO SUNNY 86 72 62 CALM 30.02R HX 92 ALLENDALE PTSUNNY 84 73 70 CALM 30.01R HX 91 ...SOUTHERN MIDLANDS AND PEE DEE... CITY SKY/WX TMP DP RH WIND PRES REMARKS GEORGETOWN NOT AVBL KINGSTREE NOT AVBL ORANGEBURG CLOUDY 81 73 76 SE3 30.03R BARNWELL FAIR 84 75 74 CALM 30.02S HX 92 AIKEN FAIR 82 68 61 E6 30.06R MANNING FAIR 82 66 57 NE5 30.02R COLUMBIA PTSUNNY 84 73 69 S5 30.01S HX 90 SUMTER SUNNY 82 71 68 VRB2 30.01R FLORENCE MOSUNNY 83 73 72 SE6 30.03R MYRTLE BEACH SUNNY 84 72 65 E9 30.02 N MYRTLE BEACH SUNNY 85 73 67 E8 30.00R HX 91 $$ GAZ063-065-086>088-099>101-113>116-118-119-134>141-150-291500- ...SOUTHEAST GEORGIA... CITY SKY/WX TMP DP RH WIND PRES REMARKS SAVANNAH ARPT PTSUNNY 84 71 65 E6 30.00R HUNTER AAF MOSUNNY 84 77 80 E7 29.97R HX 94 FORT STEWART MOSUNNY 84 74 73 E2 29.97S HX 91 STATESBORO SUNNY 85 78 78 CALM 30.02R HX 97 SYLVANIA MOSUNNY 86 77 76 E3 30.02R HX 97 CLAXTON FAIR 84 73 70 CALM 30.00S HX 91 ...CSRA...CENTRAL AND FAR SOUTHEAST GEORGIA... CITY SKY/WX TMP DP RH WIND PRES REMARKS THOMSON SUNNY 87 77 72 S5 30.05S HX 99 AUGUSTA-BUSH SUNNY 84 75 74 SE8 30.00R HX 92 AUGUSTA-DANIEL MOSUNNY 85 73 67 SE7 30.02R HX 91 SWAINSBORO CLOUDY 84 77 79 SW5 30.03R HX 94 VIDALIA CLOUDY 82 73 74 CALM 30.02R EASTMAN PTSUNNY 82 80 92 CALM 30.02S HX 93 HAZLEHURST RAIN 85 75 74 CALM 29.99S HX 93 ALMA SUNNY 85 74 69 S5 29.99R HX 92 WAYCROSS MOSUNNY 88 77 69 CALM 30.00R HX 100 JESUP FAIR 88 77 70 SE5 30.00R HX 100 BAXLEY FAIR 88 73 62 SE6 30.00R HX 96 BRUNSWICK MOSUNNY 82 73 74 N3 30.00R SAINT SIMONS MOSUNNY 85 75 72 VRB6 29.98R HX 93 $$ SCZ027-028-034-036>038-045-046-048>050-GAZ119-141-291500- ...LAKE AND SUPPLEMENTAL COASTAL OBSERVATIONS... STATION/POSITION TIME TEMP WIND PRES WAVE SWELL AIR SEA DIR/SP/G HT/PER HT/PER/DIR (UTC) (F) (DEG/KT/KT) (MB) (FT/S) (FT/S/D) UPR LAKE MARION NOT AVBL WINYAH BAY 1300 82 50/ 5 1014.0 LAKE MURRAY 1300 80 130/ 3/ 5 1015.9R ACE BASIN NERRS NOT AVBL FORT PULASKI 1400 82 86 40/ 7/ 9 1016.2R SAPELO ISLAND 1400 86 40/ 5 1015.0S $$ ANZ835-935-AMZ111-154-330-350-352-354-370-450-454-472-291500- ...C-MAN AND BUOY OBSERVATIONS... STATION/POSITION TIME TEMP WIND PRES WAVE SWELL AIR SEA DIR/SP/G HT/PER HT/PER/DIR (UTC) (F) (DEG/KT/KT) (MB) (FT/S) (FT/S/D) BUOY 41004 1350 83 84 40/ 8/ 10 1014.5R 3/ 6 3/ 6 BUOY 41008 1350 81 82 40/ 8/ 10 1015.2R 2/ 6 2/120/ 6 FOLLY BEACH CMAN 1400 83 50/ 8/ 10 1015.5R CAPERS NEARSHORE 1308 82 60/ 8/ 12 1015.3R FRIPP NEARSHORE 1300 82 60/ 8/ 10 1015.0R STATION/POSITION TIME TEMP WIND PRES WAVE SWELL AIR SEA DIR/SP/G HT/PER HT/PER/DIR (UTC) (F) (DEG/KT/KT) (MB) (FT/S) (FT/S/D) 5E ST. MARYS GA 1321 82 N/A 2/ 5 FRYING PAN BUOY 1350 84 84 70/ 14/ 16 1015.4R 4/ 6 2/160/ 6 BUOY 41025 NOT AVBL CAPE LOOKOUT NC 1400 81 70/ 14/ 16 1015.9R BUOY 41002 1350 82 81 230/ 21/ 25 1014.6F 7/ 7 BUOY 41010 1320 83 84 240/ 17/ 21 1013.7R ST AUGUSTINE FL 1400 81 80 10/ 8/ 8 1015.9R $$

USA.gov is the U.S. government's official web portal to all federal, state and local government web resources and services.